Regional Weather Roundup
Issued by NWS

Home | Current Version | Previous Version | Text Only | Print | Product List | Glossary Off
Versions: 1 2 3 4 5 6 7 8 9 10 11 12 13 14 15 16 17 18 19 20 21 22 23 24 25 26 27 28 29 30 31 32 33 34 35 36 37 38 39 40 41 42 43 44 45 46 47 48 49 50

000
ASUS43 KIND 230509
RWRIN

WEATHER ROUNDUP FOR INDIANA
NATIONAL WEATHER SERVICE INDIANAPOLIS IN
100 AM EDT WED AUG 23 2017

NOTE: "FAIR" INDICATES FEW OR NO CLOUDS BELOW 12,000 FEET WITH NO
SIGNIFICANT WEATHER AND/OR OBSTRUCTIONS TO VISIBILITY.

* - STATION DOES NOT REPORT WEATHER SUCH AS PRECIPITATION OR FOG.

+ - STATION NOT QUALITY CONTROLLED BY THE NATIONAL WEATHER SERVICE.
    USE DATA WITH CAUTION...ESPECIALLY DEWPOINT AND RELATIVE
    HUMIDITY OBSERVATIONS.

INZ001>003-010>013-019-020-230600-
NORTHWEST INDIANA

CITY           SKY/WX    TMP DP  RH WIND       PRES   REMARKS
GARY /AIRPORT/ CLEAR     69  47  46 NW9       30.02R
KNOX *+        PTCLDY    57  55  94 SW3       30.00R
LA PORTE +     PTCLDY    61  57  87 W5        30.01R
MICHIGAN CITY+ CLEAR     68  50  52 NW6       30.00R
MONTICELLO +   CLEAR     61  60  96 CALM      30.00S
RENSSELAER +   MOCLDY    61  54  77 CALM      30.01R
VALPARAISO     CLEAR     63  56  78 W6        30.01R

$$

LMZ046-743>745-230600-
SOUTHERN LAKE MICHIGAN

STATION/POSITION TIME  TEMP    WIND        PRES    WAVE
                       AIR SEA DIR/SP/G            HT
                 (UTC) (F)     (DEG/KT/KT) (MB)    (FT)
BURNS HARBOR     0440   72     320/ 15/ 19 1015.6S
MICHIGAN CITY    0440   71     310/ 19/ 21   N/A
5NW MICH CITY    0500   72 74  320/ 16/ 21   N/A     6

$$

INZ004-005-014>016-021>024-230600-
NORTH CENTRAL INDIANA

CITY           SKY/WX    TMP DP  RH WIND       PRES   REMARKS
GOSHEN         CLEAR     57  54  89 CALM      29.98S
LOGANSPORT +   CLEAR     61  59  94 CALM      30.01S
PERU/GRISSOM   CLEAR     62  60  93 CALM      29.99R
ROCHESTER +    CLEAR     63  61  94 CALM      30.01R
SOUTH BEND     CLEAR     60  59  96 CALM      30.00R
WARSAW +       PTCLDY    59  57  94 CALM      29.99S

$$

INZ006>009-017-018-025>027-230600-
NORTHEAST INDIANA

CITY           SKY/WX    TMP DP  RH WIND       PRES   REMARKS
AUBURN +       PTCLDY    59  54  82 CALM      29.99R
FORT WAYNE     PTCLDY    60  56  86 W5        29.99R
HUNTINGTON +   CLEAR     60  58  95 CALM      29.99R

$$

INZ028-029-035-036-043>045-051>053-230600-
WEST CENTRAL INDIANA

CITY           SKY/WX    TMP DP  RH WIND       PRES   REMARKS
GREENCASTLE +  PTCLDY    64  57  77 CALM      30.02S
LAFAYETTE      CLEAR     62  59  90 W3        30.00R
TERRE HAUTE    CLEAR     65  58  78 NW5       30.02S

$$

INZ030>032-037>040-046>048-054>057-064-065-230600-
CENTRAL INDIANA

CITY           SKY/WX    TMP DP  RH WIND       PRES   REMARKS
CP ATTERBURY + CLEAR     64  59  82 NW3       30.00R
FRANKFORT +    PTCLDY    64  61  92 CALM      30.02S
GREENWOOD *+   PTCLDY   N/A N/A N/A CALM      30.00S
INDIANAPOLIS   CLEAR     65  60  84 NW7       29.99R
-EAGLE CREEK   PTCLDY    67  60  78 NW9       29.99R
KOKOMO +       PTCLDY    63  59  87 NW3       30.01R
MARION +       CLEAR     59  57  94 CALM      30.00R
MT COMFORT *+  PTCLDY    64  61  88 NW3       30.00R
SHELBYVILLE    PTCLDY    66  60  81 NW6       29.98R
ZIONSVILLE +   PTCLDY    62  60  94 NW5       30.01S

$$

INZ033-034-041-042-049-050-058-059-230600-
EAST CENTRAL INDIANA

CITY           SKY/WX    TMP DP  RH WIND       PRES   REMARKS
MUNCIE         PTCLDY    62  59  90 CALM      29.99R
RICHMOND +     CLEAR     63  63 100 N3        30.00R

$$

INZ060-061-067>069-081>083-085>088-230600-
SOUTHWEST INDIANA

CITY           SKY/WX    TMP DP  RH WIND       PRES   REMARKS
EVANSVILLE     CLEAR     70  63  78 N7        30.01S
HUNTINGBURG +  CLEAR     69  63  81 N7        30.01
WASHINGTON +   CLEAR     65  62  90 MISG      30.01R

$$

INZ062-063-066-070>080-084-089>092-230600-
SOUTH CENTRAL AND SOUTHEAST INDIANA

CITY           SKY/WX    TMP DP  RH WIND       PRES   REMARKS
BEDFORD +      PTCLDY    68  61  77 CALM      30.00R
BLOOMINGTON    CLEAR     66  60  81 VRB3      30.00F
MADISON *+     MOCLDY    68  66  94 CALM      30.00S
NORTH VERNON + CLEAR     66  61  82 NW3       29.99R
SEYMOUR +      CLEAR     68  61  77 CALM      29.99R

$$





USA.gov is the U.S. government's official web portal to all federal, state and local government web resources and services.